Погода в Курасовке

Россия / Белгородская область     51°03′58″N   36°13′01″E
В апреле 2022 года жителям России запретили посещать сайт meteo.paraplan.net по решению Генеральной прокуратуры. Аудитория сайта уменьшилась в 10 раз. Владельцы сайта не видят смысла в поддержке погодного сервера в таких условиях. Сайт будет закрыт в октябре.
темп.,
°C
ветер,
м/с
пор.,
м/с
влажн.,
%
обл.,
%
осадки,
мм/ч
давл.,
гПа
погр.,
м
29 сентября, чт
чт2900:00+13зюз358097 0.0 1005106
03:00+11зюз33925 0.0 100637
06:00+10зюз349425 0.0 100884
09:00+13зюз35837 0.0 1009289
12:00+17зюз346774 0.0 10101012
15:00+18юз3459100 0.0 10111165
18:00+15юз2273100 0.0 101211
21:00+13юв3378100 0.0 101340
30 сентября, пт
пт3000:00+13юв3784100 0.0 1014116
03:00+13юв4985100 0.0 1014165
06:00+14ююв4882100 0.0 1014174
09:00+15юв4879100 0.1 1015209
12:00+20ю51061100 0.0 1015785
15:00+21ююз6957100 0.0 10151266
18:00+17ююз41076100 0.4 1016357
21:00+15ю369211 0.4 1017122
1 октября, сб
сб100:00+14ю2395100 0.0 101753
03:00+14юз2294100 0.0 101713
06:00+13зюз229583 0.0 101711
09:00+16ююз238797 0.0 1018210
12:00+20юз4467100 0.0 1017713
15:00+21юз455759 0.0 1016988
18:00+18ююз3573100 0.0 101587
21:00+15ююз4108979 2.8 1014186
2 октября, вс
вс200:00+15юз359292 2.7 101481
03:00+14зюз119423 3.5 101312
06:00+14зюз0092100 0.0 101210
09:00+16юв1183100 0.0 1012128
12:00+19юв2370100 0.0 1011436
15:00+19вюв3574100 0.0 1009151
18:00+18вюв4781100 0.3 1007143
21:00+18ююв61378100 2.8 1006310
3 октября, пн
пн300:00+16ююв41183100 0.7 1004296
03:00+15юв3690100 1.8 1003157
06:00+15вюв81789100 1.5 997642
09:00+15юв81788100 1.9 995826
12:00+16юв91687100 1.8 9921156
15:00+11ююв101591100 4.1 990943
18:00+10ююз111687100 0.1 9951384
21:00+9юз111686100 0.8 10001419